Regional Weather Roundup
Issued by NWS Columbia, SC

Home | Current Version | Previous Version | Text Only | Print | Product List | Glossary On
Versions: 1 2 3 4 5 6 7 8 9 10 11 12 13 14 15 16 17 18 19 20 21 22 23 24 25 26 27 28
000
ASUS42 KCAE 230210
RWRCAE
REGIONAL WEATHER ROUNDUP
NATIONAL WEATHER SERVICE COLUMBIA SC
1000 PM EDT SUN APR 22 2018

NOTE: "FAIR" INDICATES FEW OR NO CLOUDS BELOW 12,000 FEET WITH NO
SIGNIFICANT WEATHER AND/OR OBSTRUCTIONS TO VISIBILITY.

NOT ALL STATIONS ARE QUALITY CONTROLLED BY THE NATIONAL
WEATHER SERVICE. USE DATA WITH CAUTION...ESPECIALLY
DEWPOINT OBSERVATIONS.

SCZ001>056-GAZ040-063>065-077-230300-
...UPSTATE SOUTH CAROLINA...

CITY           SKY/WX    TMP DP  RH WIND       PRES   REMARKS
ANDERSON       LGT RAIN  58  54  86 E12       30.21R
LIBERTY        RAIN      56  56 100 E5        30.21S
SPARTANBURG    FAIR      55  52  88 CALM      30.23S
CLEMSON        LGT RAIN  56  53  90 E6        30.22R
GREENVILLE     LGT RAIN  60  53  77 E3        30.24R
GREENWOOD      CLOUDY    58  55  90 VRB5      30.23R
GREER          CLOUDY    58  51  78 NE3       30.24R
ROCK HILL      MOCLDY    60  52  74 CALM      30.25R
CHESTER        FAIR      61  50  67 SE10      30.24S
LAURENS        LGT RAIN  59  54  82 E6        30.22S


...CENTRAL SOUTH CAROLINA...

CITY           SKY/WX    TMP DP  RH WIND       PRES   REMARKS
COLUMBIA APT   LGT RAIN  61  59  93 E8        30.23R
COLUMBIA OWENS MOCLDY    62  55  77 VRB5      30.24R
MCENTIRE ANGB  LGT RAIN  60  56  87 E8        30.24S
ORANGEBURG     LGT RAIN  64  52  64 SE9G18    30.24R
SUMTER SHAW    CLOUDY    61  54  77 SE12      30.23F
NEWBERRY       FAIR      59  54  82 E6        30.25S
AIKEN          DRIZZLE   59  54  82 E9        30.24S
BARNWELL       CLOUDY    63  54  72 E9        30.21S
MANNING        LGT RAIN  59  50  72 SE8       30.26F
CAMDEN         CLOUDY    63  52  67 E5G13     30.26R
LANCASTER      FAIR      63  50  63 SE8       30.25S
WINNSBORO      LGT RAIN  59  54  82 SE8G16    30.23S


...EASTERN AND COASTAL SOUTH CAROLINA...

CITY           SKY/WX    TMP DP  RH WIND       PRES   REMARKS
MYRTLE BEACH   FAIR      63  53  70 E13       30.31S
N MYRTLE BCH   FAIR      63  52  67 E8        30.30R
CONWAY         FAIR      61  52  72 E6        30.30R
MARION         MOCLDY    61  50  67 E6        30.30R
HARTSVILLE     MOCLDY    61  50  67 SE8       30.27S
FLORENCE       FAIR      63  51  65 SE9       30.29R
DARLINGTON     FAIR      63  51  65 SE13G18   30.28R
CHARLESTON APT CLOUDY    67  54  63 E17       30.24F
MOUNT PLEASANT CLOUDY    66  55  68 E10       30.26S
WALTERBORO     CLOUDY    63  55  77 E10       30.23F
BEAUFORT       CLOUDY    68  57  68 E14G20    30.21


...EASTERN GEORGIA...

CITY           SKY/WX    TMP DP  RH WIND       PRES   REMARKS
AUGUSTA BUSH F LGT RAIN  61  57  87 E5        30.19S
AUGUSTA DANIEL LGT RAIN  62  57  83 SE8       30.20R
THOMSON        LGT RAIN  59  57  93 S9        30.23R
WASHINGTON     RAIN      59  57  94 E6        30.17S
CLAXTON        FAIR      67  60  76 NE12G18   30.14F
SYLVANIA       FAIR      64  57  77 E15       30.17F
STATESBORO     CLOUDY    66  52  60 E8        30.15F
SAVANNAH       FAIR      67  58  72 E13       30.18S


...SOUTHERN NORTH CAROLINA...

CITY           SKY/WX    TMP DP  RH WIND       PRES   REMARKS
CHARLOTTE      CLOUDY    65  48  54 E8        30.25R
MONROE         FAIR      62  51  67 VRB5      30.25R
WADESBORO      CLOUDY    64  50  61 SE8       30.27R
ROCKINGHAM     FAIR      63  50  63 SE10      30.28S
RUTHERFORDTON  CLOUDY    58  51  77 CALM      30.26R
ASHEVILLE      LGT RAIN  54  50  86 SE5       30.25R

$$




USA.gov is the U.S. government's official web portal to all federal, state and local government web resources and services.